TimeCDT,TemperatureF,Dew PointF,Humidity,Sea Level PressureIn,VisibilityMPH,Wind Direction,Wind SpeedMPH,Gust SpeedMPH,PrecipitationIn,Events,Conditions,WindDirDegrees,DateUTC
12:56 AM,55.9,34.0,44,30.11,10.0,East,3.5,-,N/A,,Clear,80,2013-03-21 05:56:00
1:56 AM,54.0,35.1,49,30.08,10.0,East,5.8,-,N/A,,Clear,100,2013-03-21 06:56:00
2:56 AM,53.1,37.0,55,30.05,10.0,ESE,3.5,-,N/A,,Mostly Cloudy,120,2013-03-21 07:56:00
3:56 AM,53.1,36.0,52,30.03,10.0,ESE,4.6,-,N/A,,Overcast,110,2013-03-21 08:56:00
4:56 AM,55.0,37.9,53,30.00,10.0,SE,4.6,-,N/A,,Overcast,140,2013-03-21 09:56:00
5:56 AM,55.9,39.0,53,29.98,10.0,SSE,10.4,-,N/A,,Overcast,160,2013-03-21 10:56:00
6:56 AM,57.0,43.0,59,29.88,10.0,SSE,11.5,-,N/A,,Mostly Cloudy,160,2013-03-21 11:56:00
7:56 AM,55.9,44.1,64,29.89,10.0,SSE,8.1,-,N/A,,Clear,150,2013-03-21 12:56:00
9:56 AM,62.1,48.9,62,29.86,10.0,SSE,13.8,-,N/A,,Clear,150,2013-03-21 14:56:00
10:56 AM,68.0,48.9,50,29.83,10.0,SSE,24.2,32.2,N/A,,Partly Cloudy,150,2013-03-21 15:56:00
11:56 AM,66.0,52.0,60,29.82,10.0,South,16.1,34.5,N/A,,Overcast,180,2013-03-21 16:56:00
12:56 PM,69.1,54.0,58,29.77,10.0,South,15.0,25.3,N/A,,Overcast,170,2013-03-21 17:56:00
1:56 PM,70.0,54.0,57,29.72,10.0,SSE,20.7,31.1,N/A,,Overcast,160,2013-03-21 18:56:00
2:56 PM,71.1,55.0,57,29.68,10.0,SSE,15.0,20.7,N/A,,Overcast,160,2013-03-21 19:56:00
3:56 PM,73.0,55.0,53,29.65,10.0,SSE,17.3,26.5,N/A,,Overcast,160,2013-03-21 20:56:00
4:56 PM,75.0,55.9,51,29.60,10.0,SSE,16.1,23.0,N/A,,Overcast,150,2013-03-21 21:56:00
5:56 PM,78.1,57.0,48,29.59,10.0,SSE,15.0,24.2,N/A,,Mostly Cloudy,160,2013-03-21 22:56:00
6:56 PM,75.0,55.9,51,29.61,10.0,SSE,13.8,-,N/A,,Overcast,160,2013-03-21 23:56:00
7:56 PM,73.0,57.0,57,29.68,10.0,SSE,11.5,-,N/A,,Clear,160,2013-03-22 00:56:00
8:56 PM,71.1,57.0,61,29.62,10.0,SE,8.1,-,N/A,,Clear,140,2013-03-22 01:56:00
9:56 PM,68.0,57.9,70,29.62,10.0,SE,10.4,-,N/A,,Clear,140,2013-03-22 02:56:00
10:56 PM,66.9,59.0,76,29.70,10.0,SE,10.4,-,N/A,,Clear,140,2013-03-22 03:56:00
11:56 PM,66.9,59.0,76,29.70,10.0,SSE,11.5,-,N/A,,Partly Cloudy,150,2013-03-22 04:56:00